User: anonymous   Login
Location: Newark
(48.8481°N, 20.9372°E)
Time: 01:27:43
(UTC+00:00)
Language:

SEEDS - Orbit

View from above orbital plane
View from above orbital plane
View from above satellite
View from above satellite

Ground track
Ground track

The orbit data is extracted from the following two-line orbital elements,

1 32791U 08021J   20092.96253369 +.00000281 +00000-0 +33798-4 0  9994
2 32791 097.5393 090.5017 0013345 004.6854 355.4488 14.91003865646982
Epoch (UTC): 01 April 2020 23:06:02
Eccentricity: 0.0013345
inclination: 97.5393°
perigee height: 585 km
apogee height: 604 km
right ascension of ascending node: 90.5017°
argument of perigee: 4.6854°
revolutions per day: 14.91003865
mean anomaly at epoch: 355.4488°
orbit number at epoch: 64698

The dashed part of the orbit path shows where the satellite is in the earth's shadow,  

DLR